x

Big Sable Point, Mi (bsbm4) Weather Station

3:40am - Fri 30th Jan 2015 All times are CST. -6 hours from GMT.

  • Wind
    23mph, 37mph gusts
  • Air Temp 20°f
  • Sea Pressure 1028.8mb
  • Big Sable Point, Mi
  • Big Sable Point, Mi

More Historic Weather Station data

Upgrade to MSW Pro to gain access to the past 30 days of data for over 8000 Wavebouys and Weather Stations around the globe.

Join Pro

Comparision Forecast

View Surf forecast
   
Fri 01/30 3:40am 23 37 mph 1028.8mb 20f
3:30am 26 29 mph 1028.8mb 21f
3:20am 23 36 mph 1028.8mb 20f
3:10am 29 37 mph 1028.8mb 21f
3:00am 29 37 mph 1028.4mb 21f
2:40am 30 38 mph 1028.1mb 21f
2:30am 23 36 mph 1028.1mb 21f
2:29am 26 29 mph 1028.1mb 21f
2:20am 25 36 mph 1028.1mb 21f
2:10am 29 37 mph 1028.1mb 21f
2:00am 31 38 mph 1027.8mb 21f
1:40am 30 39 mph 1027.8mb 21f
1:30am 29 36 mph 1027.4mb 22f
1:27am 25 34 mph 1027.4mb 22f
1:20am 31 38 mph 1027.4mb 22f
1:10am 30 38 mph 1027.1mb 22f
1:00am 23 40 mph 1027.1mb 22f
12:40am 28 39 mph 1026.8mb 22f
12:30am 26 38 mph 1026.8mb 22f
12:27am 28 29 mph 1026.8mb 22f
12:20am 26 39 mph 1026.4mb 22f
12:10am 30 37 mph 1026.4mb 22f
12:00am 28 36 mph 1026.4mb 22f
Thu 01/29 11:40pm 29 39 mph 1026.4mb 23f
11:30pm 26 40 mph 1026.1mb 23f
11:26pm 28 40 mph 1026.1mb 23f
11:20pm 29 40 mph 1026.1mb 23f
11:10pm 26 39 mph 1025.7mb 23f
11:05pm 30 36 mph 1025.7mb 23f
11:00pm 30 39 mph 1025.4mb 23f
10:40pm 26 38 mph 1025.4mb 23f
10:30pm 29 39 mph 1025.4mb 23f
10:20pm 26 39 mph 1025.1mb 23f
10:10pm 31 40 mph 1024.7mb 23f
10:04pm 28 33 mph 1024.7mb 24f
10:00pm 29 36 mph 1025.1mb 24f
9:40pm 26 39 mph 1024.4mb 24f
9:30pm 28 38 mph 1024.4mb 24f
9:20pm 29 37 mph 1024mb 24f
9:10pm 26 37 mph 1024mb 24f
9:03pm 28 37 mph 1023.7mb 24f
9:00pm 25 38 mph 1023.7mb 24f
8:40pm 26 38 mph 1023.4mb 24f
8:30pm 32 38 mph 1023.4mb 25f
8:21pm 30
mph
1023mb 25f
8:20pm 30 38 mph 1023mb 25f
8:10pm 28 38 mph 1022.7mb 26f
8:03pm 30
mph
1022.7mb 26f
8:00pm 29 38 mph 1022.4mb 26f
7:40pm 29 40 mph 1022mb 27f
7:30pm 29 40 mph 1021.7mb 27f
7:20pm 32 41 mph 1021.3mb 27f
7:10pm 30 41 mph 1021mb 27f
7:02pm 31 41 mph 1020.7mb 29f
7:00pm 30 37 mph 1020.7mb 29f
6:40pm 24 33 mph 1020.3mb 29f
6:30pm 26 34 mph 1020mb 30f
6:20pm 24 34 mph 1019.6mb 29f
6:10pm 25 32 mph 1019.3mb 29f
6:00pm 22 29 mph 1019mb 29f
5:40pm 23 31 mph 1018.6mb 30f
5:30pm 25 31 mph 1018.3mb 30f
5:20pm 23 29 mph 1017.9mb 30f
5:19pm 20 29 mph 1017.6mb 30f
5:10pm 21 29 mph 1017.3mb 31f
5:00pm 16 25 mph 1017.3mb 31f
4:40pm 20 25 mph 1016.6mb 31f
4:30pm 16 25 mph 1016.3mb 32f
4:20pm 18 28 mph 1016.3mb 32f
4:10pm 18 34 mph 1015.9mb 33f
4:00pm 23 30 mph 1015.6mb 33f
3:40pm 24 34 mph 1014.9mb 33f
3:30pm 21 30 mph 1014.9mb 33f
3:20pm 25 31 mph 1014.6mb 33f
3:19pm 22 29 mph 1014.6mb 33f
3:10pm 24 34 mph 1014.6mb 33f
3:00pm 23 31 mph 1014.2mb 33f
2:40pm 28 32 mph 1013.5mb 33f
2:30pm 23 33 mph 1013.5mb 32f
2:20pm 28 33 mph 1013.2mb 33f
2:16pm 23 29 mph 1013.2mb 33f
2:10pm 24 32 mph 1013.2mb 33f
2:00pm 24 36 mph 1012.9mb 33f
1:40pm 28 36 mph 1012.2mb 33f
1:30pm 26 36 mph 1012.2mb 33f
1:20pm 25 33 mph 1011.9mb 33f
1:13pm 29 30 mph 1011.9mb 33f
1:10pm 30 37 mph 1011.9mb 33f
1:00pm 30 37 mph 1011.5mb 33f
12:40pm 28 36 mph 1011.2mb 33f
12:30pm 25 34 mph 1011.5mb 33f
12:20pm 29 38 mph 1011.2mb 33f
12:13pm 28 29 mph 1011.2mb 33f
12:10pm 26 34 mph 1011.2mb 33f
12:00pm 26 36 mph 1011.2mb 33f
11:40am 28 37 mph 1011.2mb 32f
11:30am 29 34 mph 1011.2mb 33f
11:20am 23 31 mph 1011.2mb 32f
11:12am 20 31 mph 1011.2mb 32f
11:10am 24 31 mph 1011.2mb 32f
11:00am 21 31 mph 1010.8mb 33f
10:40am 20 28 mph 1010.5mb 32f
10:30am 22 28 mph 1010.8mb 32f
10:20am 21 29 mph 1010.5mb 32f
10:10am 21 29 mph 1010.5mb 32f
10:00am 14 23 mph 1010.2mb 30f
9:40am 6 7 mph 1010.2mb 29f
9:30am  -  1 mph 1009.8mb 29f
9:20am  -  2 mph 1009.8mb 29f
9:10am  -  2 mph 1009.5mb 28f
9:00am  -  3 mph 1009.5mb 28f
8:40am  -  2 mph 1009.5mb 27f
8:30am 2
mph
1009.5mb 27f
8:20am 2 3 mph 1009.1mb 27f
8:10am 2 3 mph 1009.1mb 28f
8:00am  -  3 mph 1009.1mb 27f
7:40am 3 7 mph 1008.8mb 27f
7:30am 6 8 mph 1008.5mb 27f
7:20am 6 9 mph 1008.5mb 27f
7:10am 6 11 mph 1008.1mb 27f
7:00am 9 11 mph 1008.1mb 27f
6:40am 8 10 mph 1008.1mb 27f
6:30am 7 11 mph 1008.1mb 27f
6:20am 7 10 mph 1008.1mb 27f
6:10am 7 11 mph 1008.1mb 27f
6:00am 8 10 mph 1008.1mb 27f
5:40am 9 14 mph 1007.8mb 27f
5:30am 9 13 mph 1007.8mb 27f
5:20am 8 13 mph 1007.8mb 27f
5:10am 8 11 mph 1008.1mb 27f
5:00am 8 11 mph 1008.1mb 27f
4:40am 7 10 mph 1008.5mb 27f
4:30am 8 11 mph 1008.8mb 27f
4:20am 8 13 mph 1008.8mb 27f
4:10am 8 15 mph 1008.8mb 27f
4:00am 9 15 mph 1009.1mb 27f
3:50am 8 13 mph 1009.1mb 27f
3:40am 8 11 mph 1009.5mb 27f
3:30am 10 14 mph 1009.5mb 27f
3:20am 10 15 mph 1009.5mb 27f
3:10am 9 16 mph 1009.8mb 27f
3:00am 10 14 mph 1009.8mb 28f
2:50am 10 14 mph 1009.8mb 28f
2:40am 8 14 mph 1010.5mb 28f
2:30am 8 15 mph 1010.5mb 29f
2:20am 9 15 mph 1010.8mb 29f
2:10am 9 17 mph 1010.8mb 29f
2:00am 11 16 mph 1010.8mb 29f
1:50am 10 17 mph 1010.8mb 30f
1:40am 13 17 mph 1010.8mb 30f
1:30am 10 18 mph 1011.2mb 30f
1:20am 9 16 mph 1011.2mb 29f
1:10am 10 18 mph 1011.2mb 29f
1:00am 7 15 mph 1011.5mb 29f
12:50am 13 20 mph 1011.9mb 30f
12:40am 13 17 mph 1011.9mb 30f
12:30am 10 17 mph 1011.9mb 30f
12:20am 11 17 mph 1011.9mb 29f
12:10am 11 17 mph 1011.9mb 29f
12:00am 14 20 mph 1012.2mb 29f
Wed 01/28 11:50pm 10 22 mph 1012.5mb 29f
11:40pm 14 21 mph 1012.5mb 29f
11:30pm 11 21 mph 1012.9mb 29f
11:20pm 10 17 mph 1013.2mb 29f
11:10pm 13 20 mph 1013.5mb 29f
11:00pm 9 16 mph 1013.5mb 29f
10:40pm 11 17 mph 1013.5mb 30f
10:30pm 13 16 mph 1013.9mb 30f
10:20pm 13 17 mph 1013.9mb 30f
10:10pm 11 18 mph 1013.9mb 30f
10:00pm 13 20 mph 1014.2mb 30f
9:50pm 8 17 mph 1014.6mb 30f
9:40pm 13 18 mph 1014.6mb 30f
9:30pm 11 20 mph 1014.6mb 30f
9:20pm 13 20 mph 1014.9mb 30f
9:10pm 11 18 mph 1014.9mb 30f
9:00pm 15 22 mph 1014.9mb 30f
8:50pm 11 17 mph 1014.9mb 30f
8:40pm 13 21 mph 1014.9mb 29f
8:30pm 14 18 mph 1015.2mb 29f
8:20pm 10 18 mph 1015.2mb 29f
8:10pm 13 20 mph 1015.2mb 29f
8:00pm 11 25 mph 1015.2mb 29f
7:50pm 11 18 mph 1015.9mb 29f
7:40pm 10 18 mph 1015.9mb 29f
7:30pm 13 23 mph 1015.9mb 29f
7:20pm 13 18 mph 1016.3mb 29f
7:10pm 14 21 mph 1016.3mb 29f
7:00pm 13 23 mph 1016.6mb 29f
6:50pm 14 25 mph 1016.6mb 29f
6:40pm 15 22 mph 1016.6mb 29f
6:30pm 13 18 mph 1016.9mb 29f
6:20pm 10 20 mph 1017.6mb 29f
6:10pm 14 22 mph 1017.6mb 29f
6:00pm 9 15 mph 1017.9mb 29f
5:50pm 10 20 mph 1017.9mb 29f
5:40pm 14 20 mph 1018.3mb 29f
5:30pm 10 16 mph 1018.6mb 29f
5:20pm 11 16 mph 1018.6mb 29f
5:10pm 15 20 mph 1018.6mb 29f
5:00pm 13 18 mph 1018.6mb 29f
4:50pm 8 13 mph 1019.3mb 29f
4:40pm 10 16 mph 1019.3mb 30f
4:30pm 7 10 mph 1019.6mb 30f
4:20pm 7 14 mph 1019.6mb 30f
4:10pm 8 14 mph 1019.6mb 30f
4:00pm 13 16 mph 1020mb 30f
3:50pm 14 18 mph 1020mb 30f
3:40pm 14 20 mph 1020.3mb 30f
3:30pm 13 18 mph 1020.3mb 30f
3:20pm 14 20 mph 1020.7mb 30f
3:10pm 14 18 mph 1021mb 30f
3:00pm 14 18 mph 1021mb 30f
2:50pm 13 18 mph 1021.3mb 30f
2:40pm 13 20 mph 1021mb 30f
2:30pm 14 21 mph 1021.3mb 30f
2:20pm 16 21 mph 1021.3mb 30f
2:10pm 14 22 mph 1021.3mb 30f
2:00pm 16 22 mph 1021.3mb 30f
1:50pm 18 22 mph 1021.3mb 31f
1:40pm 16 23 mph 1021.3mb 31f
1:30pm 17 23 mph 1021.7mb 31f
1:20pm 15 22 mph 1021.7mb 30f
1:10pm 20 24 mph 1021.7mb 30f
1:00pm 20 26 mph 1022mb 30f
12:50pm 16 21 mph 1022.4mb 30f
12:40pm 14 21 mph 1022.7mb 29f
12:30pm 13 22 mph 1022.4mb 29f
12:20pm 13 20 mph 1022.7mb 29f
12:10pm 11 18 mph 1023mb 28f
12:00pm 11 18 mph 1023.4mb 28f
11:50am 14 17 mph 1023.7mb 28f
11:40am 13 20 mph 1023.7mb 28f
11:30am 13 17 mph 1024mb 28f
11:20am 11 18 mph 1024mb 29f
11:10am 11 17 mph 1024mb 28f
11:00am 9 16 mph 1024.4mb 28f
10:50am 10 14 mph 1024.4mb 28f
10:40am 10 13 mph 1024.7mb 27f
10:30am 9 13 mph 1024.7mb 27f
10:20am 8 10 mph 1025.1mb 27f
10:10am 6 13 mph 1025.1mb 26f
10:00am 8 10 mph 1025.1mb 26f
9:50am 5 11 mph 1025.4mb 26f
9:40am 7 11 mph 1025.4mb 26f
9:30am 5 7 mph 1025.4mb 25f
9:20am 3 8 mph 1025.4mb 23f
9:10am 6 7 mph 1025.1mb 22f
9:00am 5 8 mph 1025.4mb 20f
8:50am 6 9 mph 1025.4mb 19f
8:40am 7 10 mph 1025.4mb 18f
8:30am 6 8 mph 1025.7mb 17f
8:20am 6 8 mph 1025.7mb 17f
8:10am 5 7 mph 1025.7mb 17f
8:00am 5 9 mph 1025.7mb 16f
7:50am 5 8 mph 1025.7mb 15f
7:40am 6 8 mph 1025.7mb 15f
7:30am 5 7 mph 1026.1mb 15f
7:20am 5 9 mph 1025.7mb 15f
7:10am 7 11 mph 1025.4mb 15f
7:00am 7 9 mph 1025.1mb 15f
6:50am 7 9 mph 1025.4mb 15f
6:40am 8 10 mph 1025.4mb 15f
6:30am 7 10 mph 1025.4mb 15f
6:20am 8 10 mph 1025.4mb 15f
6:10am 7 10 mph 1025.7mb 15f
6:00am 7 9 mph 1025.7mb 15f
5:50am 6 10 mph 1025.7mb 15f
5:40am 6 9 mph 1025.4mb 15f
5:30am 6 9 mph 1025.4mb 15f
5:20am 5 8 mph 1025.7mb 15f
5:10am 6 8 mph 1025.4mb 15f
5:00am 7 9 mph 1025.4mb 15f
4:50am 6 7 mph 1025.4mb 15f
4:40am 6 7 mph 1025.4mb 15f
4:30am 5 6 mph 1025.4mb 15f
4:20am 3 7 mph 1025.4mb 16f
4:10am 5 7 mph 1025.7mb 16f
4:00am 5 6 mph 1025.4mb 15f
3:50am 3 5 mph 1025.7mb 16f
3:40am 3 5 mph 1025.7mb 16f
3:30am 3 6 mph 1025.4mb 16f
3:20am 3 7 mph 1025.4mb 16f
3:10am 5 6 mph 1025.4mb 16f
3:00am 5 7 mph 1025.4mb 17f
2:50am 5 7 mph 1025.7mb 17f
2:40am 5 6 mph 1025.4mb 17f
2:30am 3 6 mph 1025.7mb 17f
2:20am 2 5 mph 1025.7mb 16f
2:10am 3
mph
1025.4mb 16f
2:00am 3 5 mph 1025.4mb 16f
1:50am 2 3 mph 1025.7mb 16f
1:40am 3 5 mph 1025.7mb 16f
1:30am  -  2 mph 1025.4mb 17f
1:20am  -  2 mph 1025.4mb 16f
1:10am 2
mph
1025.4mb 16f
1:00am  -  mph 1025.4mb 17f
12:50am  -  mph 1025.4mb 17f
12:40am  -  3 mph 1025.1mb 17f
12:30am 2
mph
1025.1mb 17f
12:20am  -  mph 1025.1mb 17f
12:10am  -  mph 1025.1mb 17f
12:00am  -  mph 1025.1mb 17f
Tue 01/27 11:50pm  -  3 mph 1024.7mb 17f
11:40pm  -  8 mph 1024.7mb 17f
11:30pm 3 7 mph 1024mb 17f
11:20pm 3 7 mph 1024.4mb 18f
11:10pm 5 7 mph 1024.7mb 18f
11:00pm 5 6 mph 1024.4mb 18f
10:50pm 5 8 mph 1024.7mb 18f
10:40pm 7 11 mph 1024.4mb 19f
10:30pm 7 9 mph 1024.4mb 18f
10:20pm 7 8 mph 1024.7mb 19f
10:10pm 5 8 mph 1025.1mb 19f
10:00pm 6 9 mph 1025.1mb 19f
9:50pm 7 10 mph 1025.1mb 19f
9:40pm 6 9 mph 1025.1mb 19f
9:30pm 7 9 mph 1024.7mb 19f
9:20pm 8 9 mph 1024.7mb 19f
9:10pm 6 8 mph 1024.7mb 19f
9:00pm 6 9 mph 1024.4mb 19f
8:50pm 7 9 mph 1024.4mb 19f
8:40pm 7 8 mph 1024.4mb 19f
8:30pm 6 8 mph 1024.4mb 20f
8:20pm 6 8 mph 1024.4mb 20f
8:10pm 6 8 mph 1024.4mb 20f
8:00pm 5 8 mph 1024.4mb 20f
7:50pm 3 5 mph 1024.4mb 20f
7:40pm 2 3 mph 1024.4mb 21f
7:30pm 3 6 mph 1024.7mb 21f
7:20pm 2 6 mph 1025.1mb 22f
7:10pm  -  5 mph 1024.7mb 23f
7:00pm 3 5 mph 1024.7mb 23f
6:50pm 2 6 mph 1024.7mb 23f
6:40pm  -  6 mph 1024.7mb 23f
6:30pm 3 8 mph 1024.7mb 24f
6:20pm 5 8 mph 1024.7mb 24f
6:10pm 6 10 mph 1024.7mb 24f
6:00pm 8 9 mph 1024.7mb 24f
5:50pm 6 9 mph 1024.4mb 24f
5:40pm 6 9 mph 1024.4mb 24f
5:30pm 8 10 mph 1024.4mb 24f
5:20pm 7 10 mph 1024.4mb 24f
5:10pm 6 10 mph 1024.4mb 24f
5:00pm 7 10 mph 1024.4mb 24f
4:50pm 7 9 mph 1024.4mb 24f
4:40pm 8 10 mph 1024.4mb 25f
4:30pm 8 9 mph 1024.4mb 25f
4:20pm 6 10 mph 1024.4mb 25f
4:10pm 6 10 mph 1024mb 25f
4:00pm 8 9 mph 1024mb 26f
3:50pm 7 10 mph 1023.7mb 26f
3:40pm 7 10 mph 1023.7mb 26f
3:30pm 8 11 mph 1023.7mb 26f
3:20pm 7 13 mph 1023.7mb 26f
3:10pm 7 13 mph 1023.7mb 26f
3:00pm 7 11 mph 1023.7mb 26f
2:50pm 8 11 mph 1023.7mb 26f
2:40pm 9 13 mph 1023.7mb 26f
2:30pm 9 11 mph 1023.7mb 26f
2:20pm 8 11 mph 1023.7mb 26f
2:10pm 7 11 mph 1023.4mb 26f
2:00pm 8 10 mph 1023.4mb 26f
1:50pm 9 11 mph 1023.4mb 26f
1:40pm 9 11 mph 1023.4mb 27f
1:30pm 8 11 mph 1023.4mb 26f
1:20pm 8 10 mph 1023.4mb 26f
1:10pm 8 11 mph 1023.4mb 26f
1:00pm 6 10 mph 1023.4mb 26f
12:50pm 7 10 mph 1023.4mb 26f
12:40pm 8 10 mph 1023.4mb 26f
12:30pm 8 10 mph 1023.4mb 26f
12:20pm 6 9 mph 1023.4mb 26f
12:10pm 8 9 mph 1023.4mb 26f
12:00pm 7 8 mph 1023.4mb 27f
11:50am 3 7 mph 1023.4mb 26f
11:40am 3 7 mph 1023.4mb 27f
11:30am  -  7 mph 1023.4mb 26f
11:20am 3 8 mph 1023mb 25f
11:10am 5 9 mph 1023mb 25f
11:00am 6 10 mph 1023mb 24f
10:50am 7 11 mph 1023mb 24f
10:40am 10 11 mph 1023mb 24f
10:30am 8 10 mph 1023mb 24f
10:20am 7 9 mph 1023mb 23f
10:10am 8 11 mph 1023mb 22f
10:00am 7 10 mph 1022.7mb 22f
9:50am 9 10 mph 1022.7mb 21f
9:40am 9 13 mph 1022.7mb 21f
9:30am 9 10 mph 1022.7mb 21f
9:20am 8 9 mph 1022.4mb 21f
9:10am 8 10 mph 1022.4mb 20f
9:00am 6 8 mph 1022.4mb 20f
8:50am 6 9 mph 1022.4mb 19f
8:40am 7 9 mph 1022.4mb 18f
8:30am 7 9 mph 1022.4mb 17f
8:20am 7 10 mph 1022.4mb 17f
8:10am 6 8 mph 1022mb 17f
8:00am 6 7 mph 1022mb 16f
7:50am 6 8 mph 1022mb 16f
7:40am 6 8 mph 1021.7mb 15f
7:30am 7 9 mph 1021.3mb 15f
7:20am 7 8 mph 1021.3mb 14f
7:10am 6 7 mph 1021mb 14f
7:00am 7 9 mph 1021mb 14f
6:50am 7 8 mph 1021mb 14f
6:40am 6 7 mph 1020.7mb 14f
6:30am 6 7 mph 1020.7mb 14f
6:20am 6
mph
1020.3mb 13f
6:10am 5 6 mph 1020.3mb 15f
6:00am 5 6 mph 1020mb 15f
5:50am 6 7 mph 1019.6mb 15f
5:40am 6
mph
1019.6mb 15f
5:30am 6 7 mph 1019.3mb 15f
5:20am 6
mph
1019.3mb 16f
5:10am 5 6 mph 1019mb 16f
5:00am 5 6 mph 1019mb 16f
4:50am 6 7 mph 1019mb 16f
4:40am 6
mph
1019mb 17f
4:30am 5 6 mph 1019mb 17f
4:20am 6 8 mph 1018.6mb 17f
4:10am 6 9 mph 1018.6mb 18f
4:00am 7 9 mph 1018.6mb 18f
3:50am 8 10 mph 1018.3mb 18f
3:40am 8 10 mph 1018.3mb 19f
3:30am 7 9 mph 1018.3mb 19f
3:20am 6 8 mph 1018.3mb 19f
3:10am 6 9 mph 1017.9mb 19f
3:00am 7 8 mph 1017.6mb 19f
2:50am 7 11 mph 1017.6mb 19f
2:40am 9 13 mph 1017.6mb 19f
2:30am 8 11 mph 1017.3mb 19f
2:20am 8 10 mph 1017.3mb 19f
2:10am 8 13 mph 1017.3mb 19f
2:00am 9 13 mph 1017.3mb 19f
1:50am 9 13 mph 1017.3mb 19f
1:40am 9 13 mph 1017.3mb 19f
1:30am 10 14 mph 1016.9mb 19f
1:20am 10 16 mph 1016.9mb 19f
1:10am 9 14 mph 1016.6mb 19f
1:00am 9 14 mph 1016.6mb 19f
12:50am 11 14 mph 1016.6mb 19f
12:40am 9 15 mph 1016.6mb 19f
12:30am 9 14 mph 1016.6mb 19f
12:20am 10 15 mph 1016.6mb 19f
12:10am 9 15 mph 1016.6mb 19f
12:00am 11 16 mph 1016.6mb 19f
Mon 01/26 11:50pm 10 15 mph 1016.6mb 20f
11:40pm 10 14 mph 1016.6mb 20f
11:30pm 10 14 mph 1016.3mb 20f
11:20pm 10 15 mph 1016.3mb 20f
11:10pm 10 15 mph 1015.9mb 20f
11:00pm 10 15 mph 1015.9mb 20f
10:50pm 10 15 mph 1015.9mb 20f
10:40pm 9 15 mph 1015.6mb 20f
10:30pm 13 16 mph 1015.2mb 20f
10:20pm 10 16 mph 1015.2mb 20f
10:10pm 8 14 mph 1015.2mb 21f
10:00pm 8 14 mph 1015.2mb 21f
9:50pm 9 13 mph 1015.2mb 21f
9:40pm 9 13 mph 1015.2mb 21f
9:30pm 9 14 mph 1015.2mb 21f
9:20pm 8 11 mph 1015.2mb 21f
9:10pm 8 11 mph 1015.6mb 21f
9:00pm 7 11 mph 1015.2mb 21f
8:50pm 8 10 mph 1015.2mb 21f
8:40pm 7 10 mph 1015.2mb 21f
8:30pm 7 9 mph 1015.2mb 21f
8:20pm 6 10 mph 1014.9mb 21f
8:10pm 6 9 mph 1014.9mb 21f
8:00pm 7 10 mph 1014.9mb 21f
7:50pm 7 10 mph 1014.6mb 21f
7:40pm 7 10 mph 1014.6mb 21f
7:30pm 6 8 mph 1014.6mb 21f
7:20pm 6 8 mph 1014.6mb 21f
7:10pm 7 8 mph 1014.6mb 21f
7:00pm 6 8 mph 1014.6mb 21f
6:50pm 5 7 mph 1014.6mb 21f
6:40pm 5 6 mph 1014.6mb 21f
6:30pm 5 6 mph 1014.6mb 21f
6:20pm 5
mph
1014.6mb 21f
6:10pm 5
mph
1014.6mb 21f
6:00pm 3 5 mph 1014.6mb 20f
5:50pm 3 5 mph 1014.6mb 21f
5:40pm 5
mph
1014.2mb 20f
5:30pm 5
mph
1014.2mb 21f
5:20pm 3 6 mph 1014.2mb 21f
5:10pm 5 6 mph 1013.9mb 22f
5:00pm 3 7 mph 1013.9mb 22f
4:50pm 5 9 mph 1013.9mb 22f
4:40pm 6 8 mph 1013.5mb 22f
4:30pm 3 8 mph 1013.5mb 22f
4:20pm 7 8 mph 1013.5mb 22f
4:10pm 6 9 mph 1013.5mb 22f
4:00pm 7 10 mph 1013.2mb 22f
3:50pm 7 10 mph 1013.2mb 22f
3:40pm 7 10 mph 1013.2mb 22f
3:30pm 7 10 mph 1012.9mb 22f
3:20pm 7 10 mph 1012.9mb 22f
3:10pm 8 11 mph 1012.9mb 22f
3:00pm 9 11 mph 1012.9mb 22f
2:50pm 8 13 mph 1012.9mb 22f
2:40pm 7 10 mph 1012.9mb 22f
2:30pm 8 10 mph 1013.2mb 22f
2:20pm 8 10 mph 1013.2mb 22f
2:10pm 8 10 mph 1013.2mb 22f
2:00pm 8 9 mph 1013.2mb 22f
1:50pm 5 11 mph 1013.2mb 21f
1:40pm 9 11 mph 1013.2mb 21f
1:30pm 7 10 mph 1013.5mb 21f
1:20pm 5 11 mph 1013.5mb 21f
1:10pm 6 9 mph 1013.9mb 21f
1:00pm 5 9 mph 1013.9mb 20f
12:50pm 6 9 mph 1013.9mb 21f
12:40pm 6 11 mph 1013.9mb 20f
12:30pm 9 11 mph 1013.9mb 20f
12:20pm 7 11 mph 1013.9mb 20f
12:10pm 8 11 mph 1013.9mb 20f
12:00pm 9 13 mph 1013.9mb 20f
11:50am 9 13 mph 1014.2mb 20f
11:40am 9 15 mph 1014.2mb 19f
11:30am 9 15 mph 1014.2mb 19f
11:20am 11 14 mph 1014.6mb 19f
11:10am 9 16 mph 1014.6mb 19f
11:00am 13 16 mph 1014.6mb 19f
10:50am 8 14 mph 1014.6mb 20f
10:40am 8 16 mph 1014.9mb 19f